User: anonymous   Login
Location: Cantaing
(50.1487°N, 3.1675°E)
Time: 01:41:59
(UTC+00:00)
Language:

Meteor 1-24 Rocket - Orbit

View from above orbital plane
View from above orbital plane
View from above satellite
View from above satellite

Ground track
Ground track

The orbit is defined by the following mean orbital elements,

1 08800U          26073.26265716 +.00000000 +00000-0 +32164-4 0 00002
2 08800  81.2542 351.0560 0094136 145.2308 215.5066 14.10651556    05
Epoch (UTC): 14 March 2026 06:18:13
Eccentricity: 0.0094136
inclination: 81.2542°
perigee height: 789 km
apogee height: 925 km
right ascension of ascending node: 351.0560°
argument of perigee: 145.2308°
revolutions per day: 14.10651556
mean anomaly at epoch: 215.5066°

The dashed part of the orbit path shows where the satellite is in the earth's shadow,  

DLR